"2014-12-04 00:01:00",1440349,-0.8379263,-0.7889888,-18.75241,1.415037,-13.38523,1.437965,0,-0.08315921,-8.288764,-0.9759166,0,0.003,7999,0,0,0,-1.00974,-2.438896,-3.108459,3.368741,4.796471,6.08048,8.772418,11.43541,12.37667,0.2814128,"NAN","NAN",7.597771,-12.87974,-12.80788,-12.73021,-14.4802,0.4862014,36.86071,37.38742,37.41229,38.53353,37.25405,37.3829,37.57279,38.49058,34.98219,0.6525774,0.6766472,0.6777782,0.7303221,0.670506,0.6764314,0.6851916,0.7282782,0.5699397,1.000064,-0.2871513,13.1455,303.5,309,302.9,-6.139,-1.458
"2014-12-04 00:02:00",1440350,-0.8208258,-0.7830117,-19.43847,1.447792,-14.00129,1.49366,0,-0.1247388,-8.064744,-0.9628296,0,0.003,7999,0,0,0,-0.9999593,-2.43235,-3.085594,3.365377,4.786583,6.08048,8.782605,11.44227,12.36978,0.2846756,"NAN","NAN",7.601054,-12.87974,-12.80532,-12.7253,-14.47764,0.4860464,36.88784,37.31509,37.41003,38.53805,37.25179,37.34674,37.54567,38.59909,34.99123,0.6538119,0.6733062,0.6776742,0.7305377,0.670403,0.6747662,0.6839375,0.7334604,0.5703282,1.000013,-0.2871513,13.01752,303,308.6,303.2,-5.49,-1.536
"2014-12-04 00:03:00",1440351,-0.8265137,-0.7889773,-18.4665,1.490382,-13.27319,1.513321,0,-0.249477,-8.008719,-0.9497401,0,0.004,7999,0,0,0,-1.003199,-2.422531,-3.02342,3.348991,4.796425,6.087046,8.769023,11.44569,12.36978,0.2846807,"NAN","NAN",7.597771,-12.87951,-12.80254,-12.73899,-14.47483,0.4861262,36.86523,37.31509,37.41229,38.55387,37.27439,37.31735,37.53662,38.60361,34.93019,0.6527815,0.673306,0.6777782,0.7312915,0.671438,0.6734109,0.6835189,0.7336771,0.5677255,1.000064,-0.2871513,13.02205,304.1,309.4,303.3,-6.194,-1.356
"2014-12-04 00:04:00",1440352,-0.8265112,-0.7949519,-18.35216,1.487101,-13.72123,1.513321,0,-0.249477,-7.56068,-0.939888,0,0.003,7999,0,0,0,-0.9999517,-2.425804,-3.03982,3.348994,4.793015,6.080406,8.779208,11.43884,12.37667,0.2748566,"NAN","NAN",7.597771,-12.87951,-12.79913,-12.73162,-14.47142,0.4861266,36.79968,37.34221,37.46881,38.42955,37.29022,37.33995,37.57053,38.51318,34.98671,0.6498173,0.6745598,0.6803856,0.7253892,0.672164,0.6744488,0.6850868,0.7293527,0.5701326,1.000038,-0.2871513,13.26881,304.2,309,303.8,-5.247,-1.454
"2014-12-04 00:05:00",1440353,-0.8493187,-0.8128901,-17.20872,1.43469,-13.3852,1.490382,0,-0.249477,-6.832613,-0.9562632,0,0.004,7999,0,0,0,-1.006472,-2.429077,-3.049525,3.355548,4.796478,6.087046,8.769017,11.43541,12.37323,0.2846858,"NAN","NAN",7.601054,-12.87967,-12.79758,-12.72114,-14.47075,0.4861267,36.85167,37.31509,37.39195,38.5923,37.30831,37.32187,37.55471,38.53353,34.98671,0.6521673,0.6733062,0.6768423,0.7331296,0.6729962,0.673618,0.6843551,0.7303264,0.5701348,1.000077,-0.2871513,13.16934,305.1,309.2,304.4,-4.827,-1.404
"2014-12-04 00:06:00",1440354,-0.8265321,-0.794972,-16.75134,1.401927,-13.04917,1.428141,0,-0.2078975,-6.496583,-0.9660899,0,0.003,7999,0,0,0,-1.088244,-2.429077,-3.082214,3.345759,4.786644,6.077197,8.772418,11.44227,12.36978,0.2879486,"NAN","NAN",7.591301,-12.87984,-12.79775,-12.71393,-14.46752,0.4861269,36.85619,37.34447,37.40325,38.54935,37.26535,37.33543,37.52532,38.6443,34.95958,0.6523723,0.6746587,0.6773617,0.7310759,0.6710231,0.6742444,0.682997,0.7356328,0.5689763,1.000051,-0.2871513,13.46026,305.4,309.3,304.7,-4.575,-1.394
"2014-12-04 00:07:00",1440355,-0.820832,-0.794972,-16.2368,1.356079,-12.93716,1.428141,0,-0.249477,-6.272563,-0.9595388,0,0.004,7999,0,0,0,-1.291028,-2.435623,-3.10184,3.355548,4.789978,6.073914,8.76562,11.43884,12.37323,0.2748566,"NAN","NAN",7.591204,-12.87984,-12.79263,-12.73031,-14.46666,0.4861269,36.83133,37.31735,37.39873,38.56066,37.25857,37.38517,37.58635,38.47702,34.98219,0.6512459,0.67341,0.6771542,0.7316166,0.6707132,0.6765332,0.6858209,0.727634,0.5699397,1.000051,-0.2871513,13.23928,305.7,309.4,305,-4.427,-1.37
"2014-12-04 00:08:00",1440356,-0.8208093,-0.8069041,-16.06519,1.349523,-12.60106,1.379008,0,-0.2494756,-6.328533,-0.9628143,0,0.004,7999,0,0,0,-1.202749,-2.406166,-3.036362,3.355593,4.773415,6.08048,8.762219,11.43541,12.37323,0.2814026,"NAN","NAN",7.597771,-12.87854,-12.78794,-12.72989,-14.46448,0.4862098,36.84263,37.3083,37.38517,38.57874,37.26988,37.33091,37.54792,38.54031,34.97766,0.6517573,0.6729953,0.6765298,0.7324817,0.6712306,0.6740332,0.6840418,0.7306482,0.5697495,1.000064,-0.2871513,13.28112,305.9,309.5,304.9,-4.591,-1.346
"2014-12-04 00:09:00",1440357,-0.8208048,-0.8248308,-16.00802,1.277435,-12.76907,1.342957,0,-0.2494756,-6.328533,-0.9530258,0,0.003,7999,0,0,0,-1.098099,-2.429077,-3.075554,3.355637,4.783249,6.09033,8.775815,11.43884,12.36978,0.2814026,"NAN","NAN",7.594488,-12.87854,-12.78709,-12.72497,-14.46022,0.4861333,36.8675,37.33317,37.41229,38.54031,37.2857,37.34674,37.54792,38.56744,34.97088,0.6528867,0.674144,0.6777783,0.7306449,0.6719565,0.6747615,0.684042,0.7319513,0.5694577,1.000077,-0.2871513,12.96346,305.6,309.1,304.9,-4.192,-1.421
"2014-12-04 00:10:00",1440358,-0.8208045,-0.8009225,-16.0652,1.264333,-12.71308,1.303637,0,-0.2078964,-6.104517,-0.9399185,0,0.003,7999,0,0,0,-1.029358,-2.429077,-3.09846,3.349035,4.78331,6.09033,8.769015,11.43541,12.37667,0.2715887,"NAN","NAN",7.587921,-12.87328,-12.78708,-12.72005,-14.46021,0.4861328,36.85393,37.36256,37.38969,38.55387,37.26535,37.37612,37.5841,38.48154,34.98219,0.6522695,0.6754938,0.6767373,0.7312923,0.6710261,0.6761245,0.6857166,0.7278486,0.5699397,1.000077,-0.283762,13.22857,305.5,309,305.2,-3.803,-1.449
"2014-12-04 00:11:00",1440359,-0.803704,-0.800922,-16.23673,1.270884,-12.60108,1.323288,0,-0.08315865,-6.160527,-0.9530156,0,0.003,7999,0,0,0,-0.9901301,-2.425804,-3.091919,3.34584,4.780029,6.077197,8.76562,11.44227,12.36978,0.2879537,"NAN","NAN",7.591301,-12.87066,-12.78196,-12.72578,-14.4585,0.4862866,36.84941,37.31282,37.40777,38.47475,37.25631,37.36934,37.56601,38.46798,34.97993,0.6520644,0.6732022,0.6775701,0.7275383,0.6706092,0.6758031,0.6848791,0.7272069,0.5698448,1.00009,-0.2769833,13.29112,305.3,309.2,305.1,-4.106,-1.404
"2014-12-04 00:12:00",1440360,-0.8208041,-0.800922,-15.95087,1.270884,-12.43306,1.293813,0,-0.2078966,-6.496556,-0.9628143,0,0.003,7999,0,0,0,-0.9606832,-2.396342,-3.049411,3.326055,4.770134,6.08048,8.76562,11.43884,12.37323,0.2814026,"NAN","NAN",7.591204,-12.86891,-12.77599,-12.73069,-14.45594,0.4862866,36.82907,37.37838,37.39647,38.53353,37.26535,37.36256,37.58183,38.5064,35.00253,0.6511468,0.6762217,0.6770494,0.7303222,0.6710244,0.6754889,0.6856124,0.7290327,0.5708089,1.000077,-0.2735939,13.19812,305.6,309.2,304.7,-4.534,-1.397
"2014-12-04 00:13:00",1440361,-0.8208151,-0.8128872,-14.92179,1.221743,-12.09704,1.270884,0,-0.249476,-5.936508,-0.930069,0,0.003,7999,0,0,0,-0.9279836,-2.386513,-3.042867,3.335841,4.7668,6.073914,8.76607,11.43541,12.37667,0.2781296,"NAN","NAN",7.597771,-12.86912,-12.77705,-12.73336,-14.45106,0.486209,36.86975,37.36256,37.38517,38.55161,37.26762,37.34221,37.59087,38.50188,34.97766,0.6529971,0.6754987,0.6765296,0.731184,0.6711287,0.674557,0.6860299,0.7288147,0.5697468,1.000077,-0.2668152,12.86563,306.4,309.5,305.4,-4.041,-1.347
"2014-12-04 00:14:00",1440362,-0.8151173,-0.8128894,-15.20764,1.192251,-12.37706,1.211917,0,-0.08315866,-5.824499,-0.9431661,0,0.004,7999,0,0,0,-0.9377925,-2.419258,-3.091914,3.342524,4.773415,6.077197,8.752027,11.43884,12.37323,0.2846756,"NAN","NAN",7.594488,-12.86649,-12.76853,-12.735,-14.45021,0.4862865,36.86071,37.30831,37.38969,38.5923,37.31057,37.33995,37.5321,38.581,34.97089,0.6525766,0.6729952,0.6767378,0.7331294,0.6731,0.6744491,0.6833106,0.7325971,0.5694625,1.000077,-0.2668152,13.32232,306,308.9,305.5,-3.426,-1.469
"2014-12-04 00:15:00",1440363,-0.7923164,-0.8069119,-14.80743,1.133293,-11.87301,1.179148,0,-0.2078965,-6.048513,-0.926796,0,0.003,7999,0,0,0,-0.9966634,-2.409434,-3.069084,3.335841,4.766861,6.073914,8.75882,11.43541,12.36978,0.2781347,"NAN","NAN",7.591204,-12.86299,-12.76681,-12.73499,-14.44593,0.4861321,36.79516,37.38517,37.39647,38.52675,37.28796,37.34221,37.57053,38.50188,34.97766,0.6496143,0.676539,0.6770511,0.7300105,0.6720603,0.6745527,0.6850868,0.7288147,0.5697467,1.00009,-0.2668152,13.11051,306.1,309.3,305.3,-3.909,-1.392
"2014-12-04 00:16:00",1440364,-0.8208163,-0.8188653,-15.32197,1.051376,-11.929,1.116915,0,0,-6.216524,-0.9562632,0,0.004,7999,0,0,0,-1.00974,-2.425804,-3.111465,3.342479,4.760178,6.077197,8.762219,11.43884,12.36978,0.2846756,"NAN","NAN",7.594488,-12.85948,-12.7668,-12.72843,-14.44507,0.4862107,36.88332,37.33091,37.41003,38.53579,37.27666,37.349,37.54792,38.54709,34.99123,0.6536061,0.6740344,0.6776741,0.7304299,0.6715415,0.6748647,0.6840417,0.7309743,0.5703263,1.00009,-0.2668152,12.91067,305.2,308.9,305,-3.881,-1.469
"2014-12-04 00:17:00",1440365,-0.7923157,-0.8069111,-15.03611,1.012077,-11.53697,1.054654,0,0,-6.496547,-0.9660899,0,0.004,7999,0,0,0,-1.00648,-2.419258,-3.11482,3.329287,4.773422,6.077197,8.755424,11.43541,12.37307,0.2879486,"NAN","NAN",7.587921,-12.85773,-12.7668,-12.73088,-14.44507,0.4861332,36.84037,37.32639,37.43264,38.55613,37.29022,37.32865,37.55018,38.50188,35.01157,0.6516565,0.6738254,0.6787178,0.7314021,0.672164,0.6739295,0.6841468,0.728819,0.5711955,1.000077,-0.2668152,12.9742,305.3,309,304.7,-4.29,-1.447
"2014-12-04 00:18:00",1440366,-0.8094136,-0.8009315,-15.72192,0.9956996,-11.81681,1.04155,0,-0.08315722,-6.720459,-0.9628398,0,0.004,7999,0,0,0,-1.00974,-2.36687,-3.0886,3.329287,4.780159,6.08048,8.762219,11.43541,12.38011,0.2748617,"NAN","NAN",7.594488,-12.85769,-12.7659,-12.73166,-14.44331,0.4863035,36.88558,37.32187,37.41229,38.54483,37.27892,37.33995,37.56375,38.49736,34.95506,0.6537036,0.6736175,0.6777782,0.7308604,0.6716452,0.6744488,0.684773,0.7285998,0.5687834,1.000102,-0.2668152,13.754,304.6,308.7,304.5,-4.181,-1.522
"2014-12-04 00:19:00",1440367,-0.7752125,-0.7889768,-16.23645,1.038279,-12.15283,1.077596,0,-0.2078931,-6.944475,-0.9464391,0,0.003,7999,0,0,0,-1.00974,-2.363591,-3.016652,3.32933,4.780083,6.077197,8.765617,11.43541,12.37323,0.2846807,"NAN","NAN",7.601044,-12.85856,-12.75652,-12.72838,-14.43904,0.4863065,36.87428,37.31961,37.41681,38.5697,37.27892,37.33995,37.57053,38.49962,34.9528,0.6531933,0.6735173,0.6779893,0.7320536,0.6716452,0.6744488,0.6850869,0.7287078,0.5686874,1.000102,-0.2630501,13.36913,304.2,308.5,304.4,-4.141,-1.558
"2014-12-04 00:20:00",1440368,-0.8037092,-0.8069044,-16.40802,1.107081,-11.98486,1.116915,0,-0.2494726,-7.392532,-0.9300664,0,0.004,7999,0,0,0,-1.00974,-2.370137,-3.03963,3.332647,4.76358,6.08048,8.755422,11.43884,12.37667,0.2846756,"NAN","NAN",7.584646,-12.85672,-12.75643,-12.7242,-14.43809,0.4863038,36.86975,37.32187,37.39421,38.55613,37.26535,37.33317,37.54114,38.54935,34.95732,0.6529863,0.6736176,0.6769454,0.7313992,0.6710232,0.6741462,0.683729,0.731087,0.568883,1.00009,-0.259285,13.3912,304.4,308.9,304,-4.877,-1.481
"2014-12-04 00:21:00",1440369,-0.820802,-0.8128741,-16.75111,1.067764,-12.32093,1.116915,0,-0.2494735,-7.336554,-0.9464518,0,0.003,7999,0,0,0,-1.006465,-2.379967,-3.091881,3.326012,4.7668,6.090406,8.755424,11.44227,12.37995,0.2879486,"NAN","NAN",7.594488,-12.85576,-12.75635,-12.7192,-14.43459,0.4862982,36.84715,37.33995,37.42133,38.5584,37.24501,37.42585,37.55471,38.49284,34.97766,0.6519641,0.6744533,0.6781982,0.731517,0.6700917,0.6784137,0.6843555,0.7283847,0.5697467,1.000102,-0.2442245,13.13982,303.9,308.5,304,-4.571,-1.555
"2014-12-04 00:22:00",1440370,-0.820802,-0.8009201,-16.23657,1.074315,-11.8729,1.116915,0,-0.2494735,-7.336554,-0.9300664,0,0.003,7999,0,0,0,-0.9933828,-2.379936,-3.072281,3.335881,4.773544,6.08048,8.765615,11.43541,12.37307,0.2715887,"NAN","NAN",7.594488,-12.85576,-12.75635,-12.72002,-14.43459,0.4862982,36.85845,37.30605,37.39421,38.55161,37.24275,37.31509,37.55245,38.53579,34.97088,0.6524742,0.6728909,0.6769454,0.7311847,0.6699895,0.6733129,0.6842518,0.7304411,0.5694578,1.000077,-0.2442245,13.25951,304.4,309,304,-4.956,-1.456
"2014-12-04 00:23:00",1440371,-0.8322127,-0.8248387,-16.52248,1.04155,-11.81693,1.103808,0,-0.2494743,-7.448587,-0.9235306,0,0.003,7999,0,0,0,-1.00974,-2.363586,-3.065697,3.322779,4.766853,6.070638,8.765615,11.43884,12.37307,0.2715836,"NAN","NAN",7.594488,-12.85421,-12.75313,-12.71858,-14.43139,0.4862949,36.84715,37.31735,37.40551,38.54935,37.26083,37.33091,37.55245,38.55613,34.9415,0.651962,0.6734099,0.6774659,0.7310762,0.670816,0.6740349,0.6842543,0.7314191,0.5682092,1.000115,-0.2442245,13.40403,304,309,304,-5.02,-1.458
"2014-12-04 00:24:00",1440372,-0.8208147,-0.8188638,-17.49439,1.107086,-12.43298,1.149668,0,-0.2494743,-7.672606,-0.8744354,0,0.003,7999,0,0,0,-1.00648,-2.357045,-3.023193,3.339292,4.766922,6.073914,8.769015,11.44569,12.37307,0.2748667,"NAN","NAN",7.591204,-12.85246,-12.75142,-12.71858,-14.42798,0.4862943,36.85619,37.33543,37.38742,38.581,37.26535,37.34447,37.55471,38.50414,34.97766,0.6523772,0.6742458,0.6766332,0.7325878,0.6710247,0.6746624,0.6843555,0.7289223,0.5697469,1.000102,-0.2442245,13.1499,303.3,308.6,304,-4.612,-1.546
"2014-12-04 00:25:00",1440373,-0.8208182,-0.8069131,-17.78026,1.179148,-12.65701,1.211914,0,-0.2494745,-7.89663,-0.8580526,0,0.003,7999,0,0,0,-1.009733,-2.35374,-3.006836,3.336014,4.773544,6.08048,8.75531,11.43884,12.37307,0.2748617,"NAN","NAN",7.594488,-12.85167,-12.74724,-12.71211,-14.42552,0.4862936,36.85393,37.32639,37.39873,38.59909,37.28344,37.32413,37.5434,38.5697,34.96862,0.6522693,0.6738256,0.6771539,0.7334551,0.6718528,0.6737216,0.6838326,0.732055,0.5693611,1.000077,-0.2442245,13.48043,303.4,308.6,303.8,-4.841,-1.531
"2014-12-04 00:26:00",1440374,-0.8493264,-0.8128973,-18.00896,1.215195,-12.65702,1.261057,0,-0.2494747,-8.512687,-0.8220164,0,0.004,7999,0,0,0,-1.00974,-2.350469,-2.97084,3.335965,4.770134,6.08048,8.75882,11.43884,12.36978,0.2879486,"NAN","NAN",7.591204,-12.84913,-12.74648,-12.69909,-14.42476,0.4862924,36.84715,37.32187,37.41003,38.52901,37.21788,37.38968,37.55471,38.48832,34.97315,0.651962,0.6736181,0.6776742,0.7301071,0.6688483,0.6767469,0.6843573,0.7281905,0.5695542,1.000128,-0.2442245,13.2843,303.3,308.9,303.4,-5.544,-1.48
"2014-12-04 00:27:00",1440375,-0.8493264,-0.8188744,-18.63785,1.257782,-12.76903,1.277435,0,-0.2494747,-8.6807,-0.8154805,0,0.004,7999,0,0,0,-1.00974,-2.35374,-2.980654,3.322825,4.770195,6.073914,8.748627,11.43541,12.37307,0.2683105,"NAN","NAN",7.587921,-12.84826,-12.74648,-12.69254,-14.42306,0.4862924,36.87202,37.30605,37.41681,38.52674,37.27892,37.34674,37.56827,38.49962,34.95958,0.6530911,0.6728919,0.6779867,0.7299992,0.6716452,0.6747606,0.6849824,0.7287073,0.568976,1.000064,-0.2442245,13.06516,302.9,308.8,303.2,-5.641,-1.488
"2014-12-04 00:28:00",1440376,-0.8892157,-0.8367949,-18.06618,1.238126,-12.26502,1.287262,0,-0.2494753,-8.848735,-0.8187383,0,0.003,7999,0,0,0,-1.00974,-2.350469,-2.961021,3.326052,4.763718,6.077197,8.758822,11.43869,12.37323,0.2814077,"NAN","NAN",7.587921,-12.84718,-12.74457,-12.68906,-14.42027,0.48629,36.83359,37.32187,37.40551,38.5584,37.27439,37.32639,37.5434,38.59456,34.9641,0.651348,0.6736179,0.677466,0.7315071,0.6714378,0.6738257,0.6838332,0.7332447,0.5691721,1.000128,-0.2442245,13.35424,303.4,309.4,303,-6.396,-1.367
"2014-12-04 00:29:00",1440377,-0.8835132,-0.8308156,-18.18052,1.185699,-12.32102,1.228297,0,-0.2494753,-9.128758,-0.8285497,0,0.004,7999,0,0,0,-1.00974,-2.35704,-3.026431,3.319458,4.760307,6.077197,8.772412,11.43884,12.38011,0.2715836,"NAN","NAN",7.597771,-12.84543,-12.7386,-12.69316,-14.41941,0.4862895,36.82681,37.32413,37.3829,38.60135,37.29926,37.33543,37.57279,38.46119,34.97088,0.6510432,0.6737267,0.6764259,0.7335639,0.6725814,0.674241,0.6851916,0.7268868,0.5694575,1.000128,-0.2442245,13.20417,303,309.1,302.7,-6.389,-1.44
"2014-12-04 00:30:00",1440378,-0.8835175,-0.8188654,-18.40927,1.133293,-12.15305,1.195529,0,-0.08315873,-9.296804,-0.8842265,0,0.004,7999,0,0,0,-1.00648,-2.353767,-3.088605,3.326098,4.76358,6.077197,8.769017,11.43541,12.37307,0.2715887,"NAN","NAN",7.591204,-12.8429,-12.73613,-12.69816,-14.4144,0.4862869,36.91271,37.31057,37.41907,38.54257,37.2857,37.34221,37.56601,38.51318,34.98445,0.6549367,0.6730984,0.6780908,0.7307531,0.6719565,0.6745529,0.6848776,0.7293537,0.5700362,1.000115,-0.2442245,12.94175,302.5,309.1,302.3,-6.839,-1.437
"2014-12-04 00:31:00",1440379,-0.8664257,-0.8128962,-18.92388,1.123469,-12.37711,1.185694,0,-0.08315901,-9.12882,-0.9006119,0,0.004,7999,0,0,0,-1.00322,-2.353767,-3.049334,3.329328,4.766922,6.073914,8.75882,11.44227,12.37651,0.2650426,"NAN","NAN",7.591204,-12.84212,-12.73622,-12.69171,-14.41451,0.4862816,36.85167,37.34221,37.39421,38.58326,37.28344,37.349,37.56149,38.5177,34.97766,0.6521669,0.6745564,0.6769462,0.7326984,0.6718528,0.6748647,0.6846688,0.7295695,0.5697492,1.000102,-0.2442245,12.96568,302,308.8,302.4,-6.465,-1.496
"2014-12-04 00:32:00",1440380,-0.8493252,-0.8009419,-18.98105,1.182424,-12.65714,1.198807,0,-0.249477,-9.12882,-0.8875046,0,0.003,7999,0,0,0,-1.00974,-2.353767,-3.046026,3.335922,4.760239,6.073837,8.755875,11.44227,12.3798,0.2846909,"NAN","NAN",7.591204,-12.8395,-12.73622,-12.69498,-14.41365,0.4862816,36.85393,37.35804,37.38742,38.58326,37.26762,37.3829,37.56827,38.49058,34.95732,0.6522709,0.6752875,0.6766341,0.7327014,0.671129,0.6764312,0.6849825,0.7282773,0.56888,1.000102,-0.2442245,13.21519,302.2,308.6,302.4,-6.181,-1.544
"2014-12-04 00:33:00",1440381,-0.8436213,-0.8069155,-19.15267,1.195529,-12.93723,1.231573,0,-0.1663189,-9.184875,-0.9071605,0,0.003,7999,0,0,0,-1.00322,-2.366803,-3.059151,3.329328,4.76358,6.073914,8.752025,11.43884,12.37307,0.2748718,"NAN","NAN",7.594482,-12.83768,-12.73445,-12.68836,-14.41273,0.4862765,36.85846,37.33543,37.41681,38.49284,37.26083,37.37612,37.54792,38.54031,34.99575,0.6524754,0.6742411,0.6779867,0.7283888,0.6708173,0.6761172,0.6840417,0.7306504,0.5705202,1.000141,-0.2442245,12.65906,302.1,308.5,302.3,-6.188,-1.572
"2014-12-04 00:34:00",1440382,-0.8436206,-0.8009376,-18.58095,1.198807,-12.43318,1.254506,0,-0.2078986,-8.736833,-0.9006093,0,0.004,7999,0,0,0,-0.999944,-2.36026,-3.042788,3.332606,4.766861,6.08048,8.76562,11.44227,12.38309,0.2584966,"NAN","NAN",7.594482,-12.83768,-12.73104,-12.69164,-14.41102,0.4862754,36.84941,37.33543,37.43264,38.4838,37.24727,37.36934,37.56375,38.4838,34.97314,0.6520657,0.6742423,0.6787169,0.727961,0.6701958,0.6758056,0.6847735,0.727958,0.5695539,1.000128,-0.2442245,12.99973,302.7,309.1,302.8,-6.328,-1.438
"2014-12-04 00:35:00",1440383,-0.8322273,-0.7949672,-19.15277,1.257782,-12.82529,1.27416,0,-0.2494797,-9.072914,-0.8973516,0,0.004,7999,0,0,0,-0.9966685,-2.350466,-3.003563,3.322734,4.760239,6.073921,8.762555,11.43884,12.37307,0.2617696,"NAN","NAN",7.591204,-12.83784,-12.72608,-12.68116,-14.40864,0.4862713,36.86523,37.30605,37.41003,38.53805,37.2857,37.33995,37.56827,38.49058,34.96637,0.6527811,0.672891,0.6776741,0.7305374,0.6719565,0.6744488,0.6849823,0.7282774,0.5692648,1.000128,-0.2272809,13.07982,302.4,308.8,302.5,-6.344,-1.504
"2014-12-04 00:36:00",1440384,-0.8607426,-0.8188897,-19.0957,1.264333,-12.60134,1.293813,0,-0.2494811,-9.352992,-0.8776779,0,0.003,7999,0,0,0,-0.9836019,-2.35374,-3.010071,3.329328,4.76358,6.073921,8.769582,11.43884,12.37635,0.2584966,"NAN","NAN",7.587827,-12.838,-12.72624,-12.70342,-14.40712,0.4862629,36.8901,37.33543,37.39647,38.56518,37.27666,37.33769,37.57053,38.49962,34.96862,0.6539146,0.674247,0.6770497,0.7318316,0.6715417,0.6743448,0.685087,0.7287071,0.5693612,1.000077,-0.2238922,13.20043,302.4,309.1,302.3,-6.854,-1.434
"2014-12-04 00:37:00",1440385,-0.8778434,-0.8069351,-19.89612,1.27416,-12.99338,1.303645,0,-0.2494811,-9.577016,-0.8678665,0,0.004,7999,0,0,0,-0.9737803,-2.357013,-3.019887,3.332692,4.753693,6.0672,8.755539,11.43541,12.37651,0.2584966,"NAN","NAN",7.587921,-12.83013,-12.72624,-12.6936,-14.40286,0.4862629,36.88558,37.31282,37.39647,38.58552,37.27439,37.33091,37.54567,38.56518,34.97766,0.6537035,0.6732032,0.6770499,0.7328061,0.6714378,0.6740334,0.6839369,0.731836,0.5697491,1.000115,-0.2238922,13.18386,301.7,308.7,302.1,-6.717,-1.51
"2014-12-04 00:38:00",1440386,-0.8778414,-0.7949784,-20.1251,1.34624,-13.10558,1.372454,0,-0.2494846,-9.745172,-0.8645782,0,0.003,7999,0,0,0,-0.9672191,-2.350474,-3.019885,3.332647,4.756966,6.073914,8.762222,11.43884,12.36978,0.2650477,"NAN","NAN",7.597765,-12.82747,-12.7245,-12.68947,-14.40196,0.4862493,36.88106,37.32413,37.41003,38.54483,37.27439,37.34447,37.56827,38.51093,34.97541,0.6534985,0.6737216,0.6776741,0.7308604,0.6714377,0.6746567,0.6849822,0.7292451,0.5696504,1.000115,-0.2238922,12.52829,301.8,308.9,301.9,-7.092,-1.464
"2014-12-04 00:39:00",1440387,-0.8607401,-0.7949781,-20.46814,1.395386,-13.66564,1.42159,0,-0.2494846,-9.633158,-0.8613078,0,0.004,7999,0,0,0,-0.9476064,-2.360257,-3.003563,3.332647,4.756966,6.073914,8.755422,11.44227,12.37323,0.2552287,"NAN","NAN",7.591204,-12.82572,-12.72279,-12.68046,-14.3994,0.4862466,36.87428,37.31057,37.39647,38.5697,37.28344,37.33543,37.5841,38.49284,34.96862,0.653191,0.6730985,0.6770499,0.7320482,0.6718548,0.674241,0.685716,0.7283869,0.5693611,1.000115,-0.2238922,12.9417,301.7,308.6,302.1,-6.619,-1.537
"2014-12-04 00:40:00",1440388,-0.8835365,-0.8129056,-20.01081,1.431417,-13.32964,1.447784,0,-0.2494853,-9.465166,-0.8449351,0,0.004,7999,0,0,0,-0.9312566,-2.36026,-3.010144,3.329371,4.760239,6.070557,8.752139,11.43541,12.37323,0.2454122,"NAN","NAN",7.587921,-12.82038,-12.71672,-12.67299,-14.39929,0.4862443,36.83811,37.32187,37.40551,38.53579,37.29248,37.33317,37.54792,38.56744,34.94376,0.6515574,0.6736247,0.6774662,0.7304308,0.6722677,0.6741374,0.684042,0.7319472,0.5683029,1.000128,-0.2238922,13.00062,302.3,309.1,302.3,-6.84,-1.436
"2014-12-04 00:41:00",1440389,-0.8835272,-0.8188744,-19.55348,1.401929,-13.32968,1.441244,0,-0.2494861,-9.353181,-0.8645808,0,0.003,7999,0,0,0,-0.9410706,-2.353767,-3.026357,3.335965,4.757034,6.067278,8.755422,11.43541,12.37307,0.2552261,"NAN","NAN",7.584544,-12.81678,-12.71577,-12.68927,-14.39491,0.4862397,36.83359,37.33317,37.41229,38.57874,37.29022,37.33317,37.57957,38.46119,34.97088,0.6513504,0.6741392,0.6777807,0.7324809,0.6721677,0.6741372,0.6855056,0.7268831,0.5694575,1.000051,-0.2238922,13.53924,302.6,309,302.3,-6.781,-1.442
"2014-12-04 00:42:00",1440390,-0.8835272,-0.8128972,-19.83935,1.428141,-13.38569,1.437965,0,-0.2494861,-9.409188,-0.8580348,0,0.003,7999,0,0,0,-0.9541499,-2.350494,-3.023087,3.332603,4.756897,6.067281,8.762337,11.43541,12.37323,0.2355855,"NAN","NAN",7.584447,-12.81328,-12.71577,-12.72365,-14.3932,0.4862397,36.83133,37.31961,37.4236,38.48154,37.25405,37.3829,37.5434,38.51545,34.98671,0.6512467,0.6735138,0.6782997,0.7278561,0.670507,0.6764283,0.6838322,0.7294605,0.5701329,1.000102,-0.2238922,13.03376,302.5,309,302.3,-6.741,-1.458
"2014-12-04 00:43:00",1440391,-0.8892173,-0.8128879,-19.72501,1.42159,-13.44171,1.437965,0,-0.1663242,-9.185166,-0.8645935,0,0.004,7999,0,0,0,-1.006472,-2.357013,-3.039408,3.319458,4.763641,6.070638,8.748627,11.43541,12.37667,0.2388585,"NAN","NAN",7.584544,-12.80698,-12.71304,-12.70547,-14.38874,0.4862389,36.86975,37.31509,37.41229,38.54935,37.26535,37.34674,37.56149,38.56066,34.99123,0.6529865,0.6733064,0.6777782,0.7310761,0.6710238,0.6747627,0.6846704,0.73162,0.570327,1.000102,-0.2238922,12.578,302.6,308.9,302.5,-6.497,-1.47
"2014-12-04 00:44:00",1440392,-0.8778151,-0.8069089,-19.83936,1.424863,-13.3857,1.441238,0,-0.1247431,-9.353188,-0.8875046,0,0.003,7999,0,0,0,-0.9934031,-2.356984,-3.046064,3.326052,4.753624,6.070638,8.762219,11.43541,12.36978,0.2388636,"NAN","NAN",7.587921,-12.80349,-12.71218,-12.67763,-14.38789,0.4862387,36.88558,37.30604,37.41229,38.54709,37.27214,37.31961,37.56149,38.51545,34.9641,0.6537038,0.6728914,0.6777782,0.7309682,0.6713343,0.6735148,0.6846685,0.7294613,0.5691682,1.00009,-0.2238922,12.88828,302.5,309,302.2,-6.836,-1.455